User: anonymous   Login
Location: Unspecified
(0.0000°N, 0.0000°E)
Time: 22:35:57
(UTC+00:00)
Language:

KINEIS-4C - Orbit

View from above orbital plane
View from above orbital plane
View from above satellite
View from above satellite

Ground track
Ground track

The orbit is defined by the following mean orbital elements,

1 63300U          26145.61769637 +.00000000 +00000-0 +21832-3 0 00007
2 63300  97.9012 270.1404 0001195 173.0052 187.1173 14.72407463    00
Epoch (UTC): 25 May 2026 14:49:28
Eccentricity: 0.0001195
inclination: 97.9012°
perigee height: 653 km
apogee height: 654 km
right ascension of ascending node: 270.1404°
argument of perigee: 173.0052°
revolutions per day: 14.72407463
mean anomaly at epoch: 187.1173°

The dashed part of the orbit path shows where the satellite is in the earth's shadow,  

DLR